Regional Weather Roundup
Issued by NWS Goodland, KS

Home | Current Version | Previous Version | Graphics & Text | Print | Product List | Glossary On
Versions: 1 2 3 4 5 6 7 8 9 10 11 12 13 14 15 16 17 18 19 20 21 22 23 24 25 26 27 28 29 30 31 32 33 34 35 36 37 38 39 40 41 42 43 44 45 46 47 48 49 50
000
ASUS43 KGLD 301008
RWRGLD

GOODLAND FORECAST AREA HOURLY WEATHER ROUNDUP
NATIONAL WEATHER SERVICE GOODLAND KS
400 AM MDT SUN AUG 30 2015

...OFFICIAL OBSERVATIONS...

CITY           SKY/WX    TMP DP  RH WIND       PRES   REMARKS
GOODLAND KS    CLOUDY    65  48  54 SW13      30.08F
HILL CITY KS   CLEAR     57  55  93 W6        30.06R
IMPERIAL NEB   CLEAR     59  47  64 S5        30.04F
MCCOOK NEB     CLEAR     63  52  67 SW3       30.04S
AKRON CO       PTCLDY    66  44  45 S15       30.08F
BURLINGTON CO  CLEAR     62  45  53 S9        30.12F
LIMON CO       PTCLDY    51  44  77 CALM      30.17S
$$

...UNOFFICIAL OBSERVATIONS...

CITY           SKY/WX    TMP DP  RH WIND       PRES   REMARKS
COLBY KS       CLEAR     55  52  88 SW6       30.09S
GOVE KS          N/A     51  32  48 MISG        N/A
LENORA KS        N/A     60  32  34 MISG        N/A
NORTON KS      CLEAR     55  52  88 S5        30.04S
SHARON SPRINGS   N/A     59  51  74 SW9         N/A
YUMA CO          N/A     63  46  54 S12         N/A
$$



USA.gov is the U.S. government's official web portal to all federal, state and local government web resources and services.